Location: Central Falls
(41.8900°N, 71.3929°W)
Time: 04:11:49
(UTC+00:00)

Vanguard 2 Rocket - Pass Details

Date: 04 December 2023
Orbit: 555 x 3309 km, 32.9° (Epoch: 01 March)

Event Time Altitude Azimuth Distance (km) Brightness Sun altitude
Rises 02:15:40 0° 280° (W) 7,123 12.0 -54.8°
Reaches altitude 10° 02:22:05 10° 270° (W) 5,810 11.3 -55.9°
Enters shadow 02:33:06 24° 230° (SW) 3,975 10.1 -57.7°
Maximum altitude 02:33:55 24° 225° (SW) 3,899 - -57.9°
Drops below altitude 10° 02:42:29 10° 177° (S) 4,075 - -59.2°
Sets 02:46:01 0° 164° (SSE) 4,658 - -59.8°
